Total_Precipitation_Accumulation
0.38 0.43 0.42 0.38 0.45 0.64 1.10 1.70 1.16 0.28 0.34 0.88 0.62 0.21 0.02 0.00 0.00 0.00 0.00 0.00 0.00 0.00 0.00 0.00 0.00 0.00 0.03 0.02 0.03 0.07 0.03 0.03 0.01 0.00 0.00 0.00 0.03 0.07 0.17 0.42 0.26 0.13 0.14 0.36
0.62 0.59 0.66 0.55 0.57 0.91 1.46 2.11 1.05 0.83 0.78 1.00 0.32 0.11 0.05 0.01 0.00 0.00 0.01 0.00 0.00 0.01 0.00 0.03 0.01 0.01 0.01 0.01 0.03 0.05 0.04 0.11 0.09 0.06 0.08 0.04 0.05 0.09 0.16 0.28 0.38 0.31 0.29 0.21
0.82 0.89 0.85 0.83 0.82 1.14 1.92 2.62 1.80 1.86 1.22 0.31 0.36 0.47 0.24 0.06 0.05 0.08 0.09 0.02 0.04 0.05 0.07 0.03 0.02 0.02 0.03 0.05 0.06 0.08 0.07 0.03 0.05 0.10 0.12 0.12 0.07 0.05 0.10 0.39 0.61 0.34 0.22 0.15
0.79 0.89 1.11 1.13 1.18 1.48 2.99 3.77 1.48 0.80 0.88 0.41 0.21 0.29 0.31 0.18 0.21 0.16 0.08 0.21 0.25 0.20 0.15 0.12 0.07 0.06 0.06 0.10 0.08 0.17 0.24 0.13 0.05 0.01 0.02 0.03 0.08 0.08 0.07 0.16 0.23 0.32 0.10 0.13
0.78 1.00 1.03 1.22 1.48 2.13 4.15 3.63 0.92 0.29 0.16 0.19 0.28 0.35 0.19 0.10 0.13 0.14 0.20 0.27 0.10 0.07 0.13 0.13 0.19 0.21 0.21 0.25 0.24 0.24 0.37 0.24 0.04 0.01 0.01 0.01 0.01 0.01 0.11 0.13 0.08 0.09 0.06 0.12
0.62 0.94 1.08 1.18 1.60 3.09 5.02 2.91 0.71 0.59 0.36 0.17 0.28 0.21 0.14 0.13 0.07 0.11 0.14 0.21 0.13 0.06 0.17 0.18 0.22 0.17 0.20 0.24 0.32 0.43 0.40 0.44 0.17 0.07 0.00 0.00 0.00 0.00 0.03 0.10 0.14 0.23 0.23 0.08
0.53 0.74 1.05 1.13 1.62 2.68 3.08 2.12 0.91 1.22 0.85 0.26 0.13 0.07 0.08 0.11 0.09 0.10 0.06 0.16 0.43 0.24 0.07 0.10 0.16 0.24 0.19 0.21 0.24 0.31 0.47 0.34 0.22 0.13 0.05 0.07 0.02 0.00 0.00 0.03 0.07 0.08 0.12 0.18
0.57 0.62 0.93 1.05 1.34 1.77 1.87 1.73 1.40 1.41 0.92 0.22 0.10 0.09 0.12 0.12 0.19 0.17 0.11 0.09 0.22 0.24 0.20 0.32 0.29 0.22 0.23 0.19 0.21 0.23 0.28 0.33 0.30 0.19 0.17 0.08 0.01 0.00 0.00 0.03 0.04 0.04 0.07 0.12
0.62 0.58 0.83 1.04 1.06 1.31 1.52 1.43 1.43 2.25 1.61 0.52 0.10 0.15 0.16 0.22 0.24 0.32 0.21 0.34 0.31 0.32 0.56 0.66 0.50 0.30 0.16 0.14 0.17 0.16 0.28 0.30 0.39 0.24 0.21 0.12 0.02 0.00 0.00 0.01 0.06 0.01 0.01 0.07
0.62 0.57 0.72 0.89 0.79 0.93 1.29 1.36 1.29 2.43 2.47 0.64 0.26 0.29 0.31 0.38 0.37 0.38 0.40 0.55 0.46 0.53 0.76 0.88 0.77 0.36 0.18 0.21 0.27 0.25 0.24 0.28 0.29 0.24 0.24 0.07 0.01 0.01 0.01 0.08 0.15 0.01 0.00 0.01
0.67 0.65 0.59 0.76 0.72 0.83 1.20 1.15 1.26 2.01 2.03 0.67 0.47 0.29 0.23 0.25 0.34 0.57 0.55 0.88 0.83 0.62 0.57 0.38 0.47 0.32 0.15 0.15 0.26 0.33 0.29 0.27 0.25 0.28 0.26 0.08 0.02 0.06 0.14 0.20 0.06 0.02 0.01 0.01
0.68 0.69 0.68 0.78 0.88 1.02 1.23 1.29 1.05 1.50 2.10 1.13 0.47 0.25 0.15 0.07 0.06 0.19 0.43 0.63 0.67 0.73 0.55 0.30 0.27 0.25 0.16 0.13 0.22 0.36 0.52 0.33 0.23 0.12 0.08 0.08 0.09 0.11 0.10 0.06 0.12 0.11 0.28 0.30
0.61 0.57 0.65 0.89 1.15 1.19 1.37 1.30 1.01 2.41 2.57 1.61 0.68 0.32 0.10 0.04 0.04 0.09 0.39 0.18 0.51 0.83 0.62 0.74 0.47 0.34 0.19 0.12 0.11 0.22 0.29 0.32 0.59 0.59 0.43 0.19 0.25 0.22 0.06 0.04 0.05 0.05 0.12 0.58
0.63 0.69 0.76 1.03 1.28 1.25 1.74 1.73 1.38 2.65 1.81 1.70 1.03 0.50 0.18 0.13 0.08 0.15 0.18 0.14 0.26 0.51 0.61 0.78 0.66 0.36 0.28 0.23 0.13 0.25 0.33 0.56 0.43 0.71 0.75 0.50 0.45 0.67 0.38 0.19 0.14 0.15 0.16 0.15
0.57 0.65 0.90 1.28 1.41 1.53 2.34 2.22 1.95 1.78 1.45 1.33 1.23 0.33 0.29 0.21 0.18 0.15 0.31 0.34 0.37 0.65 0.66 0.59 0.31 0.28 0.52 0.50 0.34 0.32 0.35 0.88 0.81 0.68 0.94 1.03 0.97 0.55 0.46 0.54 0.40 0.26 0.13 0.10
0.49 0.72 1.03 1.18 1.42 2.49 4.08 5.13 3.13 1.70 1.49 1.75 1.50 0.64 0.29 0.39 0.34 0.35 0.25 0.47 0.69 0.82 0.99 0.52 0.17 0.17 0.67 0.66 0.70 0.50 0.42 0.42 0.57 0.83 0.89 0.95 0.79 0.43 0.27 0.18 0.25 0.27 0.19 0.15
0.66 0.82 0.98 1.01 1.41 2.01 3.06 2.51 1.50 1.20 1.63 2.16 1.54 1.01 0.49 0.45 0.61 0.67 0.78 0.59 1.02 1.43 1.25 0.68 0.31 0.22 0.47 0.62 0.65 0.54 0.38 0.43 0.39 0.55 0.47 0.26 0.19 0.16 0.09 0.04 0.03 0.02 0.02 0.03
0.77 1.05 1.22 1.39 1.63 2.12 1.96 1.24 1.27 1.06 1.62 1.49 1.25 1.17 1.08 0.82 1.07 0.96 0.93 1.10 1.17 1.30 1.31 0.81 0.50 0.57 0.70 0.73 0.58 0.33 0.22 0.30 0.22 0.20 0.15 0.12 0.08 0.04 0.02 0.01 0.01 0.01 0.00 0.00
1.23 1.56 2.02 2.98 2.55 2.46 1.71 1.47 1.62 1.22 1.16 0.94 0.56 0.83 1.63 1.61 1.48 1.08 0.90 1.31 1.39 1.04 0.81 0.64 0.75 1.01 1.05 0.69 0.27 0.24 0.16 0.10 0.09 0.03 0.01 0.01 0.02 0.02 0.01 0.00 0.01 0.01 0.01 0.05
1.66 2.03 2.77 2.93 1.95 1.66 1.89 2.64 2.66 2.20 1.12 0.76 0.53 0.45 0.99 1.70 1.82 1.42 1.13 0.94 0.89 0.87 0.68 0.79 1.06 0.83 0.43 0.18 0.17 0.16 0.11 0.09 0.06 0.04 0.04 0.03 0.03 0.02 0.02 0.03 0.04 0.05 0.09 0.11
1.36 1.63 2.16 1.73 1.77 1.90 2.07 1.97 1.48 1.31 0.68 0.29 0.41 0.49 0.88 1.10 1.76 1.37 1.00 1.04 0.62 0.40 0.53 0.67 0.93 0.50 0.28 0.08 0.05 0.07 0.12 0.10 0.13 0.17 0.20 0.19 0.18 0.14 0.09 0.13 0.15 0.15 0.14 0.18
0.81 1.30 1.43 1.91 1.96 1.58 1.21 0.93 0.71 0.52 0.30 0.24 0.37 0.64 1.14 0.99 1.38 1.34 1.18 1.03 0.76 0.56 0.40 0.45 0.56 0.42 0.21 0.14 0.12 0.10 0.14 0.19 0.23 0.21 0.21 0.25 0.25 0.24 0.21 0.20 0.20 0.21 0.24 0.29
0.98 0.69 0.96 1.07 0.93 0.84 0.69 0.49 0.47 0.43 0.25 0.27 0.39 0.81 1.39 1.05 1.42 1.37 0.92 1.30 0.92 0.58 0.63 0.52 0.39 0.21 0.15 0.16 0.19 0.23 0.25 0.24 0.26 0.30 0.31 0.28 0.28 0.27 0.24 0.26 0.36 0.38 0.50 0.74
0.63 0.63 0.58 0.80 0.60 0.57 0.51 0.48 0.44 0.25 0.16 0.23 0.68 0.90 1.14 1.19 1.44 1.13 0.69 0.97 0.94 0.74 0.59 0.41 0.40 0.35 0.31 0.28 0.29 0.26 0.35 0.38 0.39 0.46 0.47 0.53 0.57 0.69 0.81 0.88 0.99 0.82 0.92 1.14
0.47 0.59 0.70 0.57 0.69 0.61 0.64 0.54 0.39 0.30 0.31 0.43 0.79 0.94 0.86 0.83 1.41 0.80 0.58 0.57 0.55 0.40 0.38 0.46 0.60 0.56 0.51 0.53 0.58 0.62 0.71 0.77 0.85 0.94 0.88 0.97 0.93 0.76 0.92 1.01 0.94 0.76 0.75 0.74
0.57 0.77 0.71 0.60 0.59 0.61 0.58 0.50 0.43 0.42 0.53 0.59 0.91 0.93 0.65 0.58 0.44 0.40 0.41 0.39 0.43 0.51 0.52 0.62 0.63 0.69 0.82 0.88 0.92 1.00 1.01 0.97 0.95 0.94 0.82 0.77 0.71 0.62 0.65 0.63 0.56 0.55 0.44 0.43
0.63 0.91 1.01 0.86 0.72 0.78 0.81 0.71 0.59 0.55 0.57 0.68 0.57 0.55 0.57 0.47 0.24 0.23 0.32 0.59 0.81 0.86 0.89 0.84 0.83 0.91 1.01 1.01 0.94 0.92 0.77 0.67 0.64 0.59 0.52 0.49 0.46 0.30 0.18 0.22 0.29 0.20 0.17 0.15